User: anonymous   Login
Location: Hartman Creek State Park
(44.3257°N, 89.2134°W)
Time: 17:05:41
(UTC-05:00)
Language:

Terra - Orbit

View from above orbital plane
View from above orbital plane
View from above satellite
View from above satellite

Ground track
Ground track

The orbit data is extracted from the following two-line orbital elements,

1 25994U 99068A   14304.47966743 -.00000889  00000-0 -18723-3 0  7774
2 25994 098.2029 017.2475 0001393 077.0824 283.0521 14.57129825790912
Epoch (UTC): 31 October 2014 11:30:43
Eccentricity: 0.0001393
inclination: 98.2029°
perigee height: 701 km
apogee height: 703 km
right ascension of ascending node: 17.2475°
argument of perigee: 77.0824°
revolutions per day: 14.57129825
mean anomaly at epoch: 283.0521°
orbit number at epoch: 79091

The dashed part of the orbit path shows where the satellite is in the earth's shadow,  

DLR